Overview Statistics Trail Chart Weather Telemetry Raw packets
 

This is the latest recevied weather packets stored in our database for station/object KD7DVD-1. If no packets are shown the sender has not sent any weather packets the latest 10 day(s).

<< 1 2 3 4 >>
Time Temp. Humidity Pressure Rain* Wind** Luminosity Snow
1788690621 13.89° C 84% 1015.7 hPa 0 mm - - -
1788688847 13.89° C 82% 1015.8 hPa 0 mm - - -
1788687034 14.44° C 79% 1015.7 hPa 0 mm - - -
1788685246 15° C 78% 1015.7 hPa 0 mm - - -
1788683431 15° C 78% 1015.9 hPa 0 mm - - -
1788681641 15° C 75% 1015.9 hPa 0 mm - - -
1788679817 15.56° C 73% 1016 hPa 0 mm - - -
1788678017 15° C 76% 1016.1 hPa 0 mm - - -
1788676221 15° C 77% 1016.1 hPa 0 mm - - -
1788674421 15° C 76% 1016.1 hPa 0 mm - - -
1788672617 15.56° C 74% 1016.3 hPa 0 mm - - -
1788670816 16.11° C 72% 1016.3 hPa 0 mm - - -
1788669016 16.11° C 70% 1016.5 hPa 0 mm - - -
1788667244 16.67° C 67% 1016.5 hPa 0 mm - - -
1788665421 17.22° C 65% 1016.4 hPa 0 mm - - -
1788663616 17.78° C 60% 1016.2 hPa 0 mm - - -
1788661817 18.89° C 57% 1016.1 hPa 0 mm - - -
1788660021 21.67° C 55% 1016.1 hPa 0 mm - - -
1788658221 21.67° C 56% 1016.1 hPa 0 mm - - -
1788656420 21.11° C 59% 1016 hPa 0 mm - - -
1788654618 20.56° C 59% 1015.8 hPa 0 mm - - -
1788652818 19.44° C 65% 1015.7 hPa 0 mm - - -
1788651041 19.44° C 64% 1016.1 hPa 0 mm - - -
1788649218 18.89° C 67% 1016.2 hPa 0 mm - - -
1788647422 18.89° C 69% 1016.5 hPa 0 mm - - -

* Rain latest hour (hover to see other rain measurements)
** Current wind speed in m/s (hover to see current wind gust speed)